| time (UTC) | temp F | wind direction | speed MPH | gust MPH | rain 1hr in | rain 24hr in | rain mn in | humidity % | barometer mb |
| 20260510233449 | 35 | 234 | 0.0 | 11.0 | 0.00 | 0.00 | 0.00 | 81 | 1009.9 |
| 20260510232949 | 35 | 234 | 0.0 | 11.0 | 0.00 | 0.00 | 0.00 | 80 | 1009.8 |
| 20260510232449 | 35 | 234 | 0.0 | 11.0 | 0.00 | 0.00 | 0.00 | 80 | 1009.7 |
| 20260510231948 | 35 | 234 | 0.0 | 11.0 | 0.00 | 0.00 | 0.00 | 80 | 1009.7 |
| 20260510231447 | 36 | 234 | 0.0 | 11.0 | 0.00 | 0.00 | 0.00 | 79 | 1009.9 |
| 20260510230947 | 36 | 234 | 0.0 | 11.0 | 0.00 | 0.00 | 0.00 | 79 | 1009.9 |
| 20260510230447 | 36 | 234 | 0.0 | 11.0 | 0.00 | 0.00 | 0.00 | 79 | 1009.8 |
| 20260510225431 | 37 | 234 | 0.0 | 11.0 | 0.00 | 0.00 | 0.00 | 78 | 1009.8 |
| 20260510224931 | 37 | 234 | 0.0 | 11.0 | 0.00 | 0.00 | 0.00 | 77 | 1009.9 |
| 20260510224431 | 38 | 234 | 0.0 | 11.0 | 0.00 | 0.00 | 0.00 | 77 | 1009.6 |
| 20260510223930 | 38 | 234 | 0.0 | 11.0 | 0.00 | 0.00 | 0.00 | 76 | 1009.8 |
| 20260510223429 | 38 | 234 | 0.0 | 11.0 | 0.00 | 0.00 | 0.00 | 76 | 1009.8 |
| 20260510222929 | 39 | 234 | 0.0 | 11.0 | 0.00 | 0.00 | 0.00 | 76 | 1009.6 |
| 20260510222429 | 39 | 234 | 0.0 | 11.0 | 0.00 | 0.00 | 0.00 | 76 | 1010.0 |
| 20260510221929 | 39 | 234 | 0.0 | 11.0 | 0.00 | 0.00 | 0.00 | 76 | 1010.1 |
| 20260510221428 | 39 | 234 | 0.0 | 11.0 | 0.00 | 0.00 | 0.00 | 76 | 1010.1 |
| 20260510220928 | 39 | 234 | 0.0 | 11.0 | 0.00 | 0.00 | 0.00 | 76 | 1009.9 |
| 20260510220428 | 40 | 234 | 0.0 | 11.0 | 0.00 | 0.00 | 0.00 | 76 | 1010.3 |
| 20260510215928 | 40 | 234 | 0.0 | 11.0 | 0.00 | 0.00 | 0.00 | 75 | 1010.1 |
| 20260510215427 | 40 | 234 | 0.0 | 11.0 | 0.00 | 0.00 | 0.00 | 75 | 1010.0 |
| 20260510214928 | 40 | 234 | 0.0 | 11.0 | 0.00 | 0.00 | 0.00 | 75 | 1010.2 |
| 20260510213912 | 40 | 234 | 0.0 | 11.0 | 0.00 | 0.00 | 0.00 | 74 | 1010.4 |
| 20260510213411 | 41 | 234 | 0.0 | 11.0 | 0.00 | 0.00 | 0.00 | 73 | 1010.3 |
| 20260510212911 | 41 | 234 | 0.0 | 11.0 | 0.00 | 0.00 | 0.00 | 73 | 1010.2 |
| 20260510212411 | 41 | 234 | 0.0 | 11.0 | 0.00 | 0.00 | 0.00 | 73 | 1010.5 |
| 20260510211910 | 41 | 234 | 0.0 | 11.0 | 0.00 | 0.00 | 0.00 | 72 | 1010.4 |
| 20260510211409 | 42 | 234 | 0.0 | 11.0 | 0.00 | 0.00 | 0.00 | 73 | 1010.3 |
| 20260510210908 | 42 | 234 | 0.0 | 11.0 | 0.00 | 0.00 | 0.00 | 72 | 1010.6 |
| 20260510210408 | 42 | 234 | 0.0 | 11.0 | 0.00 | 0.00 | 0.00 | 72 | 1010.5 |
| 20260510205908 | 42 | 234 | 0.0 | 11.0 | 0.00 | 0.00 | 0.00 | 72 | 1010.5 |
| 20260510205408 | 42 | 234 | 0.0 | 11.0 | 0.00 | 0.00 | 0.00 | 71 | 1010.4 |
| 20260510204908 | 43 | 234 | 0.0 | 11.0 | 0.00 | 0.00 | 0.00 | 71 | 1010.5 |
| 20260510204407 | 43 | 234 | 0.0 | 11.0 | 0.00 | 0.00 | 0.00 | 71 | 1010.6 |
| 20260510203906 | 43 | 234 | 0.0 | 11.0 | 0.00 | 0.00 | 0.00 | 70 | 1010.9 |
| 20260510202333 | 44 | 234 | 0.0 | 11.0 | 0.00 | 0.00 | 0.00 | 68 | 1010.7 |
| 20260510201832 | 45 | 234 | 0.0 | 11.0 | 0.00 | 0.00 | 0.00 | 68 | 1010.6 |
| 20260510201332 | 45 | 234 | 0.0 | 11.0 | 0.00 | 0.00 | 0.00 | 67 | 1010.6 |
| 20260510200832 | 45 | 234 | 0.0 | 11.0 | 0.00 | 0.00 | 0.00 | 66 | 1010.6 |
| 20260510200331 | 45 | 234 | 0.0 | 11.0 | 0.00 | 0.00 | 0.00 | 66 | 1010.7 |
| 20260510195830 | 46 | 234 | 0.0 | 11.0 | 0.00 | 0.00 | 0.00 | 65 | 1010.5 |
| 20260510195330 | 46 | 234 | 0.0 | 11.0 | 0.00 | 0.00 | 0.00 | 65 | 1010.8 |
| 20260510194830 | 46 | 234 | 0.0 | 11.0 | 0.00 | 0.00 | 0.00 | 64 | 1010.7 |
| 20260510193815 | 47 | 234 | 0.0 | 11.0 | 0.00 | 0.00 | 0.00 | 63 | 1010.8 |
| 20260510192758 | 48 | 235 | 0.0 | 11.0 | 0.00 | 0.00 | 0.00 | 62 | 1010.5 |
| 20260510192258 | 48 | 234 | 0.0 | 11.0 | 0.00 | 0.00 | 0.00 | 62 | 1010.7 |
| 20260510191758 | 48 | 234 | 0.0 | 11.0 | 0.00 | 0.00 | 0.00 | 62 | 1010.5 |
| 20260510191258 | 48 | 205 | 0.0 | 11.0 | 0.00 | 0.00 | 0.00 | 61 | 1010.9 |
| 20260510190758 | 49 | 174 | 0.0 | 11.0 | 0.00 | 0.00 | 0.00 | 60 | 1010.9 |
| 20260510190257 | 49 | 187 | 0.0 | 11.0 | 0.00 | 0.00 | 0.00 | 60 | 1011.0 |
| 20260510185757 | 49 | 175 | 0.0 | 11.0 | 0.00 | 0.00 | 0.00 | 59 | 1010.8 |
| 20260510185257 | 50 | 205 | 0.0 | 11.0 | 0.00 | 0.00 | 0.00 | 59 | 1010.7 |
| 20260510184757 | 50 | 236 | 0.0 | 11.0 | 0.00 | 0.00 | 0.00 | 59 | 1010.5 |
| 20260510184257 | 50 | 198 | 2.0 | 11.0 | 0.00 | 0.00 | 0.00 | 58 | 1010.8 |
| 20260510183756 | 50 | 171 | 1.0 | 11.0 | 0.00 | 0.00 | 0.00 | 58 | 1010.8 |
| 20260510183256 | 51 | 183 | 1.0 | 11.0 | 0.00 | 0.00 | 0.00 | 58 | 1011.0 |
| 20260510182240 | 51 | 224 | 2.0 | 11.0 | 0.00 | 0.00 | 0.00 | 56 | 1011.0 |
| 20260510181740 | 51 | 175 | 1.0 | 11.0 | 0.00 | 0.00 | 0.00 | 57 | 1010.7 |
| 20260510181239 | 51 | 228 | 1.0 | 11.0 | 0.00 | 0.00 | 0.00 | 58 | 1010.6 |
| 20260510180738 | 51 | 178 | 0.0 | 11.0 | 0.00 | 0.00 | 0.00 | 58 | 1011.0 |
| 20260510180237 | 51 | 151 | 0.0 | 11.0 | 0.00 | 0.00 | 0.00 | 57 | 1010.9 |
| 20260510175737 | 51 | 187 | 1.0 | 11.0 | 0.00 | 0.00 | 0.00 | 57 | 1010.4 |
| 20260510174720 | 52 | 214 | 2.0 | 11.0 | 0.00 | 0.00 | 0.00 | 55 | 1011.0 |
| 20260510174220 | 52 | 208 | 2.0 | 11.0 | 0.00 | 0.00 | 0.00 | 54 | 1010.9 |
| 20260510173720 | 52 | 220 | 2.0 | 11.0 | 0.00 | 0.00 | 0.00 | 53 | 1010.6 |
| 20260510173219 | 53 | 216 | 1.0 | 11.0 | 0.00 | 0.00 | 0.00 | 54 | 1010.4 |
| 20260510172719 | 53 | 208 | 3.0 | 11.0 | 0.00 | 0.00 | 0.00 | 54 | 1010.8 |
| 20260510172218 | 53 | 206 | 0.0 | 11.0 | 0.00 | 0.00 | 0.00 | 55 | 1010.4 |
| 20260510171717 | 53 | 218 | 2.0 | 11.0 | 0.00 | 0.00 | 0.00 | 54 | 1010.5 |
| 20260510171217 | 54 | 207 | 1.0 | 11.0 | 0.00 | 0.00 | 0.00 | 54 | 1010.9 |
| 20260510170717 | 54 | 197 | 2.0 | 11.0 | 0.00 | 0.00 | 0.00 | 53 | 1010.9 |
| 20260510170217 | 54 | 188 | 2.0 | 11.0 | 0.00 | 0.00 | 0.00 | 54 | 1011.1 |
| 20260510165716 | 54 | 215 | 1.0 | 11.0 | 0.00 | 0.00 | 0.00 | 53 | 1011.1 |
| 20260510164701 | 54 | 197 | 3.0 | 11.0 | 0.00 | 0.00 | 0.00 | 53 | 1010.7 |
| 20260510163128 | 55 | 157 | 2.0 | 11.0 | 0.00 | 0.00 | 0.00 | 53 | 1011.2 |
| 20260510162111 | 54 | 189 | 2.0 | 11.0 | 0.00 | 0.00 | 0.00 | 52 | 1011.2 |
| 20260510161611 | 54 | 204 | 2.0 | 11.0 | 0.00 | 0.00 | 0.00 | 52 | 1011.3 |
| 20260510161109 | 54 | 218 | 3.0 | 11.0 | 0.00 | 0.00 | 0.00 | 52 | 1011.6 |
| 20260510160608 | 54 | 211 | 3.0 | 11.0 | 0.00 | 0.00 | 0.00 | 52 | 1011.2 |
| 20260510160107 | 54 | 203 | 3.0 | 11.0 | 0.00 | 0.00 | 0.00 | 52 | 1011.3 |
| 20260510155607 | 55 | 196 | 3.0 | 11.0 | 0.00 | 0.00 | 0.00 | 52 | 1011.2 |
| 20260510155107 | 55 | 190 | 3.0 | 11.0 | 0.00 | 0.00 | 0.00 | 51 | 1011.6 |
| 20260510154606 | 55 | 228 | 2.0 | 11.0 | 0.00 | 0.00 | 0.00 | 52 | 1011.4 |
| 20260510153550 | 55 | 223 | 1.0 | 11.0 | 0.00 | 0.00 | 0.00 | 52 | 1011.5 |
| 20260510153049 | 55 | 230 | 4.0 | 11.0 | 0.00 | 0.00 | 0.00 | 51 | 1011.4 |
| 20260510152548 | 56 | 216 | 2.0 | 11.0 | 0.00 | 0.00 | 0.00 | 50 | 1011.5 |
| 20260510152048 | 56 | 206 | 2.0 | 11.0 | 0.00 | 0.00 | 0.00 | 48 | 1011.4 |
| 20260510151548 | 56 | 220 | 1.0 | 11.0 | 0.00 | 0.00 | 0.00 | 48 | 1011.4 |
| 20260510150532 | 56 | 196 | 2.0 | 11.0 | 0.00 | 0.00 | 0.00 | 49 | 1011.6 |
| 20260510150032 | 55 | 185 | 1.0 | 11.0 | 0.00 | 0.00 | 0.00 | 53 | 1011.7 |
| 20260510145531 | 56 | 242 | 1.0 | 11.0 | 0.00 | 0.00 | 0.00 | 53 | 1011.8 |
| 20260510145031 | 56 | 186 | 1.0 | 11.0 | 0.00 | 0.00 | 0.00 | 54 | 1011.9 |
| 20260510144531 | 55 | 194 | 2.0 | 11.0 | 0.00 | 0.00 | 0.00 | 54 | 1011.8 |
| 20260510144031 | 55 | 200 | 1.0 | 11.0 | 0.00 | 0.00 | 0.00 | 55 | 1012.1 |
| 20260510143014 | 55 | 203 | 2.0 | 11.0 | 0.00 | 0.00 | 0.00 | 56 | 1012.5 |
| 20260510142514 | 55 | 205 | 2.0 | 11.0 | 0.00 | 0.00 | 0.00 | 56 | 1012.2 |
| 20260510142013 | 55 | 222 | 2.0 | 11.0 | 0.00 | 0.00 | 0.00 | 56 | 1012.3 |
| 20260510141514 | 55 | 216 | 2.0 | 11.0 | 0.00 | 0.00 | 0.00 | 56 | 1012.3 |
| 20260510141011 | 56 | 182 | 2.0 | 11.0 | 0.00 | 0.00 | 0.00 | 55 | 1012.5 |
| 20260510140511 | 56 | 207 | 0.0 | 11.0 | 0.00 | 0.00 | 0.00 | 55 | 1012.1 |
| 20260510140011 | 56 | 135 | 2.0 | 11.0 | 0.00 | 0.00 | 0.00 | 54 | 1012.5 |
| 20260510135511 | 56 | 205 | 2.0 | 11.0 | 0.00 | 0.00 | 0.00 | 52 | 1012.3 |
| 20260510135013 | 57 | 191 | 2.0 | 11.0 | 0.00 | 0.00 | 0.00 | 52 | 1012.2 |
| 20260510134509 | 56 | 224 | 2.0 | 11.0 | 0.00 | 0.00 | 0.00 | 53 | 1012.4 |
| 20260510134010 | 55 | 159 | 1.0 | 11.0 | 0.00 | 0.00 | 0.00 | 54 | 1012.4 |
| 20260510133510 | 55 | 234 | 1.0 | 11.0 | 0.00 | 0.00 | 0.00 | 53 | 1012.8 |
| 20260510133007 | 55 | 162 | 1.0 | 11.0 | 0.00 | 0.00 | 0.00 | 53 | 1012.6 |
| 20260510131950 | 56 | 152 | 2.0 | 12.0 | 0.00 | 0.00 | 0.00 | 51 | 1013.0 |
| 20260510131449 | 56 | 148 | 1.0 | 12.0 | 0.00 | 0.00 | 0.00 | 51 | 1012.9 |
| 20260510130949 | 56 | 131 | 2.0 | 12.0 | 0.00 | 0.00 | 0.00 | 51 | 1013.1 |
| 20260510130448 | 56 | 152 | 2.0 | 12.0 | 0.00 | 0.00 | 0.00 | 51 | 1013.0 |
| 20260510125949 | 56 | 156 | 2.0 | 12.0 | 0.00 | 0.00 | 0.00 | 51 | 1013.4 |
| 20260510125445 | 56 | 115 | 2.0 | 12.0 | 0.00 | 0.00 | 0.00 | 51 | 1013.2 |
| 20260510124945 | 57 | 167 | 1.0 | 12.0 | 0.00 | 0.00 | 0.00 | 51 | 1013.3 |
| 20260510123931 | 57 | 116 | 2.0 | 12.0 | 0.00 | 0.00 | 0.00 | 48 | 1013.3 |
| 20260510123429 | 56 | 150 | 1.0 | 12.0 | 0.00 | 0.00 | 0.00 | 51 | 1013.3 |
| 20260510122929 | 56 | 143 | 3.0 | 12.0 | 0.00 | 0.00 | 0.00 | 50 | 1013.6 |
| 20260510122429 | 55 | 105 | 4.0 | 12.0 | 0.00 | 0.00 | 0.00 | 50 | 1013.4 |
| 20260510121930 | 55 | 129 | 3.0 | 12.0 | 0.00 | 0.00 | 0.00 | 50 | 1013.7 |
| 20260510121428 | 54 | 120 | 1.0 | 12.0 | 0.00 | 0.00 | 0.00 | 52 | 1013.7 |
| 20260510120928 | 53 | 146 | 3.0 | 12.0 | 0.00 | 0.00 | 0.00 | 52 | 1013.9 |
| 20260510120428 | 52 | 121 | 3.0 | 12.0 | 0.00 | 0.00 | 0.00 | 53 | 1014.0 |
| 20260510115411 | 52 | 144 | 2.0 | 12.0 | 0.00 | 0.00 | 0.00 | 53 | 1014.1 |
| 20260510114355 | 51 | 224 | 0.0 | 12.0 | 0.00 | 0.00 | 0.00 | 56 | 1014.1 |
| 20260510113856 | 51 | 185 | 0.0 | 12.0 | 0.00 | 0.00 | 0.00 | 56 | 1014.1 |
| 20260510113356 | 51 | 151 | 1.0 | 12.0 | 0.00 | 0.00 | 0.00 | 56 | 1014.6 |
| 20260510112856 | 51 | 156 | 0.0 | 12.0 | 0.00 | 0.00 | 0.00 | 56 | 1014.5 |
| 20260510111839 | 51 | 152 | 1.0 | 12.0 | 0.00 | 0.00 | 0.00 | 57 | 1014.7 |
| 20260510111339 | 51 | 136 | 1.0 | 12.0 | 0.00 | 0.00 | 0.00 | 58 | 1014.6 |
| 20260510110838 | 51 | 171 | 0.0 | 12.0 | 0.00 | 0.00 | 0.00 | 58 | 1014.8 |
| 20260510110338 | 51 | 167 | 0.0 | 12.0 | 0.00 | 0.00 | 0.00 | 59 | 1014.8 |
| 20260510105321 | 51 | 166 | 1.0 | 12.0 | 0.00 | 0.00 | 0.00 | 59 | 1014.9 |
| 20260510104820 | 51 | 187 | 0.0 | 12.0 | 0.00 | 0.00 | 0.00 | 61 | 1014.8 |
| 20260510104320 | 51 | 145 | 1.0 | 12.0 | 0.00 | 0.00 | 0.00 | 62 | 1015.1 |
| 20260510103819 | 51 | 169 | 1.0 | 12.0 | 0.00 | 0.00 | 0.00 | 61 | 1015.4 |
| 20260510103319 | 51 | 227 | 1.0 | 12.0 | 0.00 | 0.00 | 0.00 | 61 | 1015.2 |
| 20260510102819 | 51 | 217 | 1.0 | 12.0 | 0.00 | 0.00 | 0.00 | 62 | 1014.9 |
| 20260510102319 | 52 | 205 | 0.0 | 12.0 | 0.00 | 0.00 | 0.00 | 62 | 1015.3 |
| 20260510101818 | 52 | 204 | 0.0 | 12.0 | 0.00 | 0.00 | 0.00 | 61 | 1015.3 |
| 20260510101318 | 51 | 209 | 0.0 | 12.0 | 0.00 | 0.00 | 0.00 | 61 | 1015.2 |
| 20260510100817 | 51 | 209 | 0.0 | 12.0 | 0.00 | 0.00 | 0.00 | 62 | 1015.1 |
| 20260510100317 | 51 | 209 | 0.0 | 12.0 | 0.00 | 0.00 | 0.00 | 62 | 1015.4 |
| 20260510095817 | 52 | 209 | 0.0 | 12.0 | 0.00 | 0.00 | 0.00 | 61 | 1015.0 |
| 20260510094802 | 52 | 206 | 1.0 | 12.0 | 0.00 | 0.00 | 0.00 | 57 | 1015.4 |
| 20260510094302 | 53 | 212 | 1.0 | 12.0 | 0.00 | 0.00 | 0.00 | 55 | 1015.3 |
| 20260510093246 | 53 | 188 | 1.0 | 12.0 | 0.00 | 0.00 | 0.00 | 53 | 1015.9 |
| 20260510092746 | 53 | 194 | 1.0 | 12.0 | 0.00 | 0.00 | 0.00 | 52 | 1015.7 |
| 20260510092245 | 53 | 214 | 0.0 | 12.0 | 0.00 | 0.00 | 0.00 | 51 | 1015.5 |
| 20260510091229 | 54 | 125 | 3.0 | 12.0 | 0.00 | 0.00 | 0.00 | 50 | 1015.8 |
| 20260510090729 | 54 | 185 | 0.0 | 12.0 | 0.00 | 0.00 | 0.00 | 49 | 1015.7 |
| 20260510090228 | 54 | 141 | 1.0 | 12.0 | 0.00 | 0.00 | 0.00 | 49 | 1015.5 |
| 20260510085728 | 55 | 140 | 3.0 | 12.0 | 0.00 | 0.00 | 0.00 | 49 | 1015.6 |
| 20260510085228 | 55 | 185 | 1.0 | 12.0 | 0.00 | 0.00 | 0.00 | 48 | 1015.2 |
| 20260510084728 | 55 | 149 | 2.0 | 12.0 | 0.00 | 0.00 | 0.00 | 48 | 1015.6 |
| 20260510084228 | 55 | 131 | 3.0 | 12.0 | 0.00 | 0.00 | 0.00 | 48 | 1015.6 |
| 20260510083212 | 56 | 139 | 3.0 | 12.0 | 0.00 | 0.00 | 0.00 | 47 | 1015.9 |
| 20260510082157 | 56 | 189 | 3.0 | 12.0 | 0.00 | 0.00 | 0.00 | 46 | 1015.7 |
| 20260510081657 | 56 | 272 | 2.0 | 12.0 | 0.00 | 0.00 | 0.00 | 45 | 1015.4 |
| 20260510081157 | 57 | 215 | 2.0 | 12.0 | 0.00 | 0.00 | 0.00 | 45 | 1015.3 |
| 20260510080656 | 57 | 206 | 3.0 | 12.0 | 0.00 | 0.00 | 0.00 | 44 | 1016.0 |
| 20260510080156 | 58 | 160 | 2.0 | 12.0 | 0.00 | 0.00 | 0.00 | 43 | 1015.7 |
| 20260510075655 | 58 | 107 | 3.0 | 12.0 | 0.00 | 0.00 | 0.00 | 44 | 1016.0 |
| 20260510075153 | 57 | 115 | 3.0 | 12.0 | 0.00 | 0.00 | 0.00 | 45 | 1016.0 |
| 20260510074653 | 56 | 156 | 2.0 | 12.0 | 0.00 | 0.00 | 0.00 | 44 | 1016.1 |
| 20260510074153 | 56 | 112 | 6.0 | 12.0 | 0.00 | 0.00 | 0.00 | 44 | 1016.1 |
| 20260510073138 | 56 | 144 | 3.0 | 12.0 | 0.00 | 0.00 | 0.00 | 44 | 1016.3 |
| 20260510072638 | 55 | 187 | 0.0 | 12.0 | 0.00 | 0.00 | 0.00 | 46 | 1016.3 |
| 20260510072138 | 54 | 173 | 1.0 | 12.0 | 0.00 | 0.00 | 0.00 | 49 | 1016.4 |
| 20260510071638 | 53 | 100 | 3.0 | 12.0 | 0.00 | 0.00 | 0.00 | 49 | 1016.5 |
| 20260510071138 | 53 | 102 | 3.0 | 12.0 | 0.00 | 0.00 | 0.00 | 50 | 1016.4 |
| 20260510070638 | 52 | 135 | 2.0 | 12.0 | 0.00 | 0.00 | 0.00 | 53 | 1016.9 |
| 20260510070138 | 51 | 156 | 0.0 | 12.0 | 0.00 | 0.00 | 0.00 | 55 | 1016.7 |
| 20260510065637 | 49 | 151 | 0.0 | 12.0 | 0.00 | 0.00 | 0.00 | 58 | 1016.9 |
| 20260510065136 | 49 | 157 | 0.0 | 12.0 | 0.00 | 0.00 | 0.00 | 59 | 1017.2 |
| 20260510064636 | 48 | 106 | 1.0 | 12.0 | 0.00 | 0.00 | 0.00 | 60 | 1017.0 |
| 20260510064135 | 48 | 106 | 0.0 | 12.0 | 0.00 | 0.00 | 0.00 | 61 | 1017.0 |
| 20260510063635 | 48 | 116 | 0.0 | 12.0 | 0.00 | 0.00 | 0.00 | 62 | 1017.1 |
| 20260510063134 | 48 | 116 | 0.0 | 12.0 | 0.00 | 0.00 | 0.00 | 62 | 1017.2 |
| 20260510062634 | 47 | 117 | 0.0 | 12.0 | 0.00 | 0.00 | 0.00 | 62 | 1017.2 |
| 20260510062133 | 47 | 117 | 0.0 | 12.0 | 0.00 | 0.00 | 0.00 | 62 | 1017.4 |
| 20260510061632 | 47 | 114 | 1.0 | 12.0 | 0.00 | 0.00 | 0.00 | 61 | 1017.4 |
| 20260510061131 | 47 | 103 | 1.0 | 12.0 | 0.00 | 0.00 | 0.00 | 62 | 1017.4 |
| 20260510060631 | 47 | 165 | 0.0 | 12.0 | 0.00 | 0.00 | 0.00 | 62 | 1017.6 |
| 20260510060131 | 47 | 85 | 1.0 | 12.0 | 0.00 | 0.00 | 0.00 | 62 | 1017.6 |
| 20260510055630 | 46 | 116 | 1.0 | 12.0 | 0.00 | 0.00 | 0.00 | 63 | 1017.6 |
| 20260510055129 | 46 | 89 | 1.0 | 12.0 | 0.00 | 0.00 | 0.00 | 65 | 1017.7 |
| 20260510053559 | 43 | 53 | 1.0 | 12.0 | 0.00 | 0.00 | 0.00 | 71 | 1018.0 |
| 20260510052543 | 41 | 167 | 1.0 | 12.0 | 0.00 | 0.00 | 0.00 | 76 | 1017.9 |
| 20260510052043 | 40 | 167 | 1.0 | 12.0 | 0.00 | 0.00 | 0.00 | 78 | 1018.2 |
| 20260510051542 | 39 | 167 | 0.0 | 12.0 | 0.00 | 0.00 | 0.00 | 80 | 1018.3 |
| 20260510051042 | 39 | 167 | 0.0 | 12.0 | 0.00 | 0.00 | 0.00 | 81 | 1018.5 |
| 20260510050541 | 38 | 167 | 0.0 | 12.0 | 0.00 | 0.00 | 0.00 | 81 | 1018.9 |
| 20260510045525 | 36 | 167 | 0.0 | 12.0 | 0.00 | 0.00 | 0.00 | 82 | 1018.5 |
| 20260510045024 | 36 | 167 | 0.0 | 12.0 | 0.00 | 0.00 | 0.00 | 83 | 1018.6 |
| 20260510044524 | 35 | 167 | 0.0 | 12.0 | 0.00 | 0.00 | 0.00 | 84 | 1018.9 |
| 20260510044024 | 35 | 167 | 0.0 | 12.0 | 0.00 | 0.00 | 0.00 | 84 | 1018.7 |
| 20260510043523 | 34 | 167 | 0.0 | 12.0 | 0.00 | 0.00 | 0.00 | 83 | 1019.0 |
| 20260510043022 | 34 | 167 | 0.0 | 12.0 | 0.00 | 0.00 | 0.00 | 83 | 1019.1 |
| 20260510041451 | 34 | 167 | 0.0 | 12.0 | 0.00 | 0.00 | 0.00 | 83 | 1018.8 |
| 20260510035919 | 33 | 167 | 0.0 | 12.0 | 0.00 | 0.00 | 0.00 | 82 | 1019.3 |
| 20260510035419 | 33 | 167 | 0.0 | 12.0 | 0.00 | 0.00 | 0.00 | 83 | 1019.0 |
| 20260510034403 | 33 | 167 | 0.0 | 12.0 | 0.00 | 0.00 | 0.00 | 82 | 1019.1 |
| 20260510033902 | 33 | 167 | 0.0 | 12.0 | 0.00 | 0.00 | 0.00 | 83 | 1019.4 |
| 20260510033401 | 33 | 167 | 0.0 | 12.0 | 0.00 | 0.00 | 0.00 | 83 | 1019.3 |
| 20260510032900 | 33 | 167 | 0.0 | 12.0 | 0.00 | 0.00 | 0.00 | 83 | 1019.5 |
| 20260510031844 | 33 | 167 | 0.0 | 12.0 | 0.00 | 0.00 | 0.00 | 83 | 1019.3 |
| 20260510031343 | 33 | 167 | 0.0 | 12.0 | 0.00 | 0.00 | 0.00 | 83 | 1019.5 |
| 20260510030843 | 33 | 167 | 0.0 | 12.0 | 0.00 | 0.00 | 0.00 | 83 | 1019.6 |
| 20260510030343 | 33 | 167 | 0.0 | 12.0 | 0.00 | 0.00 | 0.00 | 83 | 1019.6 |
| 20260510025328 | 33 | 167 | 0.0 | 12.0 | 0.00 | 0.00 | 0.00 | 83 | 1019.5 |
| 20260510024828 | 33 | 167 | 0.0 | 12.0 | 0.00 | 0.00 | 0.00 | 83 | 1019.6 |
| 20260510024328 | 33 | 167 | 0.0 | 12.0 | 0.00 | 0.00 | 0.00 | 82 | 1019.6 |
| 20260510023827 | 33 | 167 | 0.0 | 12.0 | 0.00 | 0.00 | 0.00 | 82 | 1019.8 |
| 20260510023327 | 33 | 167 | 0.0 | 12.0 | 0.00 | 0.00 | 0.00 | 81 | 1019.8 |
| 20260510022827 | 34 | 167 | 0.0 | 12.0 | 0.00 | 0.00 | 0.00 | 82 | 1019.9 |
| 20260510022326 | 34 | 167 | 0.0 | 12.0 | 0.00 | 0.00 | 0.00 | 81 | 1019.7 |
| 20260510021826 | 34 | 167 | 0.0 | 12.0 | 0.00 | 0.00 | 0.00 | 81 | 1019.7 |
| 20260510021326 | 34 | 167 | 0.0 | 12.0 | 0.00 | 0.00 | 0.00 | 80 | 1020.1 |
| 20260510020825 | 34 | 167 | 0.0 | 12.0 | 0.00 | 0.00 | 0.00 | 80 | 1020.1 |
| 20260510020324 | 34 | 167 | 0.0 | 12.0 | 0.00 | 0.00 | 0.00 | 80 | 1020.4 |
| 20260510015824 | 34 | 167 | 0.0 | 12.0 | 0.00 | 0.00 | 0.00 | 80 | 1020.2 |
| 20260510015324 | 35 | 167 | 0.0 | 12.0 | 0.00 | 0.00 | 0.00 | 79 | 1020.3 |
| 20260510014824 | 35 | 167 | 0.0 | 12.0 | 0.00 | 0.00 | 0.00 | 78 | 1020.3 |
| 20260510014324 | 35 | 167 | 0.0 | 12.0 | 0.00 | 0.00 | 0.00 | 78 | 1020.7 |
| 20260510012753 | 36 | 167 | 0.0 | 12.0 | 0.00 | 0.00 | 0.00 | 78 | 1020.5 |
| 20260510012252 | 36 | 167 | 0.0 | 12.0 | 0.00 | 0.00 | 0.00 | 77 | 1020.5 |
| 20260510011752 | 36 | 167 | 0.0 | 12.0 | 0.00 | 0.00 | 0.00 | 77 | 1020.5 |
| 20260510011252 | 36 | 167 | 0.0 | 12.0 | 0.00 | 0.00 | 0.00 | 77 | 1020.3 |
| 20260510010752 | 36 | 167 | 0.0 | 12.0 | 0.00 | 0.00 | 0.00 | 76 | 1020.9 |
| 20260510010251 | 36 | 167 | 0.0 | 12.0 | 0.00 | 0.00 | 0.00 | 76 | 1021.0 |
| 20260510005750 | 37 | 167 | 0.0 | 12.0 | 0.00 | 0.00 | 0.00 | 75 | 1020.9 |
| 20260510005249 | 37 | 167 | 0.0 | 12.0 | 0.00 | 0.00 | 0.00 | 76 | 1020.8 |
| 20260510004749 | 37 | 167 | 0.0 | 12.0 | 0.00 | 0.00 | 0.00 | 75 | 1021.0 |
| 20260510003734 | 37 | 167 | 0.0 | 12.0 | 0.00 | 0.00 | 0.00 | 75 | 1021.2 |
| 20260510003234 | 38 | 167 | 0.0 | 12.0 | 0.00 | 0.00 | 0.00 | 74 | 1021.2 |
| 20260510002734 | 38 | 167 | 0.0 | 12.0 | 0.00 | 0.00 | 0.00 | 74 | 1021.2 |
| 20260510002234 | 38 | 167 | 0.0 | 12.0 | 0.00 | 0.00 | 0.00 | 74 | 1021.3 |
| 20260510001733 | 38 | 167 | 0.0 | 12.0 | 0.00 | 0.00 | 0.00 | 73 | 1021.5 |
| 20260510001232 | 38 | 167 | 0.0 | 12.0 | 0.00 | 0.00 | 0.00 | 73 | 1021.3 |
| 20260510000732 | 39 | 167 | 0.0 | 12.0 | 0.00 | 0.00 | 0.00 | 72 | 1021.2 |
| 20260510000233 | 39 | 167 | 0.0 | 12.0 | 0.00 | 0.00 | 0.00 | 72 | 1021.4 |
| 20260509235731 | 39 | 167 | 0.0 | 12.0 | 0.00 | 0.00 | 0.00 | 72 | 1021.5 |
| 20260509235230 | 39 | 167 | 0.0 | 12.0 | 0.00 | 0.00 | 0.00 | 71 | 1021.4 |
| 20260509234730 | 40 | 167 | 0.0 | 12.0 | 0.00 | 0.00 | 0.00 | 70 | 1021.4 |
| 20260509234230 | 40 | 167 | 0.0 | 12.0 | 0.00 | 0.00 | 0.00 | 69 | 1021.8 |